[[{"header":{"parameterUnit":"m.s-1","parameterCategory":2,"la1":30.2991,"la2":30.254,"lo1":-89.0895,"lo2":-89.0444,"dy":0.0017,"dx":0.0017,"nx":28,"ny":28,"refTime":"2023-09-25T03:00:00:Z","depth":"0","parameterNumber":2,"parameterNumberName":"U-component_of_CURRENTS"},"data":[0,0,0,0,0,0,0,0,0,0,0,0,0,0,0,0,0,0,0,0,0,0,0,0,0,0,0,0,0,0,0,0,0,0,0,0,0,0,0,0,0,0,0,0,0,0,0,0,0,0,0,0,0,0,0,0,0,0,0.2163,0.2164,0,0.2176,0.2176,0.2175,0.2138,0.2138,0.2137,0.2137,0.2117,0.2116,0.2116,0,0,0,0,0,0,0,0,0,0,0,0,0,0.2103,0.2104,0.2163,0.2164,0.2164,0.2176,0.2176,0.2175,0.2138,0.2138,0.2137,0.2136,0.2117,0.2116,0.2116,0,0,0,0,0,0,0,0,0,0,0,0,0,0.2118,0.2104,0.2163,0.2152,0.2152,0.2176,0.2176,0.2175,0.2139,0.2138,0.2137,0.2136,0.2117,0.2116,0.2116,0.2133,0,0,0.2116,0.2116,0,0,0,0,0,0,0,0,0.2117,0.2119,0.2153,0.2153,0.2153,0.216,0.2148,0.2162,0.2139,0.2137,0.2137,0.2136,0.2133,0.2132,0.2127,0.2132,0.2131,0.2116,0.2116,0.2116,0.2116,0,0,0,0,0,0,0,0.2116,0.2118,0.2162,0.2154,0.2154,0.2146,0.2147,0.215,0.2134,0.2137,0.2136,0.2148,0.2132,0.2127,0.2126,0.2131,0.2116,0.2116,0.2116,0.2116,0.2167,0.2168,0,0,0,0,0,0,0.2129,0.2118,0.2161,0.2163,0.214,0.2149,0.2149,0.2153,0.2134,0.2133,0.2149,0.2146,0.2128,0.2126,0.2126,0.2169,0.2116,0.2116,0.2116,0.2165,0.2167,0.2168,0,0,0,0,0,0,0.2127,0.2132,0.2161,0.2146,0.215,0.2151,0.2156,0.2154,0.2155,0.2145,0.2141,0.2152,0.2127,0.2126,0.2144,0.2167,0.2116,0.2116,0.2164,0.2166,0.2168,0.224,0,0,0,0,0,0,0.2125,0.2131,0.2136,0.2147,0.2151,0.2184,0.2158,0.2155,0.2166,0.2163,0.2147,0.2144,0.2126,0.2144,0.2144,0.2166,0.2116,0.2162,0.2165,0.2167,0.2236,0.2245,0.2252,0,0,0,0,0,0.2123,0.214,0.2136,0.2142,0.2159,0.2186,0.2187,0.2181,0.2168,0.2175,0.217,0.2145,0.2159,0.2146,0.2145,0.2168,0.2161,0.2164,0.2167,0.2233,0.2243,0.2252,0,0,0,0,0,0,0.2112,0.2139,0.2134,0.2156,0.2174,0.2182,0.2193,0.219,0.219,0.2188,0.2166,0.2164,0.2187,0.2171,0.2156,0.219,0.2155,0.2158,0.2205,0.2214,0.2222,0.2203,0.2116,0,0,0,0,0,0.2116,0.214,0.2156,0.2177,0.2185,0.2189,0.2199,0.22,0.2206,0.2205,0.2196,0.2191,0.2199,0.2202,0.2202,0.2225,0.2226,0.2238,0.2245,0.2252,0.2237,0.2272,0.2281,0.2178,0.2178,0.2178,0,0,0.2117,0.214,0.215,0.2178,0.2186,0.2206,0.2191,0.2216,0.2234,0.2205,0.2221,0.2219,0.2212,0.2236,0.2245,0.2226,0.2291,0.2256,0.2262,0.2242,0.2276,0.2286,0.2295,0.218,0.218,0.218,0,0,0.2146,0.2152,0.218,0.2197,0.2227,0.223,0.2242,0.2255,0.2258,0.2286,0.2268,0.2284,0.2291,0.2292,0.2293,0.2346,0.2332,0.2345,0.2368,0.2404,0.2413,0.242,0.2472,0.2483,0.2348,0.2348,0.2348,0,0.2139,0.2178,0.2193,0.2223,0.2231,0.2243,0.226,0.2279,0.2298,0.2296,0.23,0.2315,0.2318,0.2341,0.2359,0.2363,0.2381,0.2335,0.2415,0.2422,0.2428,0.2479,0.249,0.2352,0.2352,0.2351,0.2351,0,0.2189,0.2213,0.2233,0.2267,0.2279,0.2303,0.2322,0.2335,0.2342,0.235,0.2376,0.2391,0.2391,0.2408,0.24,0.2442,0.2442,0.2424,0.2391,0.2443,0.2493,0.2504,0.2358,0.2356,0.2355,0.2354,0,0,0.2166,0.2248,0.2249,0.2263,0.2297,0.2308,0.2339,0.2353,0.2363,0.2397,0.241,0.2446,0.2444,0.2445,0.2449,0.2481,0.2566,0.247,0.2471,0.2521,0.266,0.2547,0.2547,0.2561,0.2562,0.2563,0.2691,0,0.2184,0.2253,0.2277,0.231,0.2332,0.2337,0.2359,0.2376,0.2391,0.2413,0.2442,0.2463,0.2465,0.2474,0.2511,0.2543,0.259,0.2533,0.26,0.2602,0.2494,0.2554,0.2327,0.2409,0.2701,0.2703,0.2704,0,0.2203,0.2248,0.2291,0.2324,0.2327,0.2342,0.2344,0.2372,0.2405,0.2417,0.2444,0.2463,0.2519,0.2515,0.2613,0.2576,0.262,0.2652,0.2657,0.2521,0.2506,0.2397,0.2417,0.2296,0.272,0.2719,0.2718,0,0.2175,0.2239,0.227,0.2283,0.2331,0.2328,0.2343,0.2363,0.2379,0.242,0.2435,0.2495,0.2535,0.2598,0.2652,0.2646,0.2751,0.2757,0.2704,0.2699,0.2498,0.247,0.2396,0.2827,0.2827,0.2827,0.2826,0,0.2176,0.2197,0.2261,0.2276,0.2292,0.2317,0.2323,0.2345,0.2377,0.2397,0.2439,0.247,0.2555,0.2614,0.2669,0.2707,0.2773,0.2711,0.2717,0.252,0.2494,0.237,0.2356,0.2831,0.283,0.2829,0.2829,0,0.2153,0.2198,0.223,0.2275,0.2285,0.2293,0.2317,0.2329,0.2359,0.239,0.2406,0.2475,0.2548,0.2614,0.272,0.2717,0.2659,0.2764,0.2528,0.2501,0.2319,0.2319,0.2213,0.2165,0.2749,0.2746,0.2744,0,0.2156,0.2176,0.2224,0.2235,0.2255,0.2272,0.2286,0.2318,0.2336,0.2387,0.2411,0.2475,0.2508,0.2603,0.2587,0.2644,0.2587,0.2468,0.2403,0.2268,0.2276,0.2222,0.2187,0.2203,0.2197,0.2192,0.2188,0,0.2151,0.2164,0.2193,0.2221,0.2232,0.2244,0.2271,0.2276,0.2314,0.2339,0.2376,0.24,0.2439,0.2361,0.2379,0.2384,0.2269,0.2367,0.228,0.1875,0.1757,0.1724,0.2191,0.2143,0.2148,0.2151,0.2154,0.2155,0.2131,0.2145,0.2175,0.2178,0.2205,0.2197,0.2154,0.2192,0.2195,0.216,0.2277,0.222,0.2118,0.2098,0.2092,0.1855,0.2006,0.1758,0.1791,0.1766,0.162,0.1988,0.19,0.1903,0.1905,0.1908,0.191,0,0.2071,0.2096,0.2126,0.2116,0.2102,0.2129,0.212,0.2043,0.1996,0.2014,0.2005,0.1822,0.1674,0.1587,0.1365,0.127,0.1234,0.1218,0.1079,0.11,0.1449,0.1317,0.1028,0.1029,0.1029,0.1029,0.1029,0.1029,0.2042,0.2035,0.2041,0.1989,0.1983,0.1889,0.184,0.1765,0.1735,0.158,0.1453,0.141,0.1267,0.101,0.0798,0.0773,0.0735,0.0634,0.0778,0.098,0.1032,0.1082,0.095,0.0589,0.0589,0.0288,0.0286,0.0284]},{"header":{"parameterUnit":"m.s-1","parameterCategory":2,"la1":30.2991,"la2":30.254,"lo1":-89.0895,"lo2":-89.0444,"dy":0.0017,"dx":0.0017,"nx":28,"ny":28,"refTime":"2023-09-25T03:00:00:Z","depth":"0","parameterNumber":3,"parameterNumberName":"V-component_of_CURRENTS"},"data":[0,0,0,0,0,0,0,0,0,0,0,0,0,0,0,0,0,0,0,0,0,0,0,0,0,0,0,0,0,0,0,0,0,0,0,0,0,0,0,0,0,0,0,0,0,0,0,0,0,0,0,0,0,0,0,0,0,0,-0.0897,-0.0899,0,-0.1044,-0.1045,-0.1046,-0.1057,-0.1056,-0.1055,-0.1055,-0.1185,-0.1189,-0.1193,0,0,0,0,0,0,0,0,0,0,0,0,0,-0.0689,-0.0692,-0.0896,-0.0899,-0.0901,-0.1044,-0.1045,-0.1047,-0.1058,-0.1056,-0.1055,-0.1054,-0.1183,-0.1188,-0.1194,0,0,0,0,0,0,0,0,0,0,0,0,0,-0.0795,-0.0693,-0.0896,-0.0929,-0.0934,-0.1044,-0.1045,-0.1047,-0.1058,-0.1056,-0.1055,-0.1054,-0.1182,-0.1188,-0.1194,-0.1264,0,0,-0.1214,-0.1217,0,0,0,0,0,0,0,0,-0.0789,-0.0802,-0.0922,-0.0927,-0.0933,-0.1037,-0.1021,-0.1121,-0.1058,-0.1003,-0.1055,-0.1053,-0.114,-0.115,-0.1171,-0.127,-0.1276,-0.1215,-0.1219,-0.1222,-0.1224,0,0,0,0,0,0,0,-0.0782,-0.0796,-0.0948,-0.0925,-0.0932,-0.096,-0.0972,-0.104,-0.1072,-0.1008,-0.1011,-0.1039,-0.1141,-0.1164,-0.1174,-0.1278,-0.1215,-0.1221,-0.1225,-0.1227,-0.1395,-0.1395,0,0,0,0,0,0,-0.0777,-0.0789,-0.0943,-0.0953,-0.0864,-0.0965,-0.0978,-0.0999,-0.1072,-0.1084,-0.1041,-0.104,-0.1154,-0.1166,-0.1178,-0.1223,-0.1222,-0.1228,-0.1232,-0.1394,-0.1395,-0.1396,0,0,0,0,0,0,-0.0772,-0.0789,-0.0937,-0.088,-0.0902,-0.0971,-0.0994,-0.1003,-0.1033,-0.1098,-0.1107,-0.1062,-0.1153,-0.1169,-0.1233,-0.123,-0.1231,-0.1237,-0.1394,-0.1395,-0.1395,-0.1341,0,0,0,0,0,0,-0.0765,-0.0786,-0.0796,-0.088,-0.0905,-0.0998,-0.0997,-0.1007,-0.1056,-0.1056,-0.1121,-0.113,-0.1153,-0.1223,-0.1239,-0.1239,-0.1242,-0.1393,-0.1394,-0.1395,-0.1342,-0.1339,-0.1337,0,0,0,0,0,-0.0757,-0.078,-0.0795,-0.0814,-0.0918,-0.1,-0.1014,-0.1054,-0.1059,-0.1074,-0.1112,-0.1128,-0.124,-0.1229,-0.1248,-0.125,-0.1393,-0.1394,-0.1395,-0.1343,-0.134,-0.1338,0,0,0,0,0,0,-0.0697,-0.0787,-0.0804,-0.0853,-0.092,-0.1004,-0.1026,-0.1064,-0.1109,-0.1102,-0.1153,-0.1166,-0.1212,-0.1251,-0.1239,-0.13,-0.1314,-0.1319,-0.1267,-0.1265,-0.1263,-0.1209,-0.1247,0,0,0,0,0,-0.0692,-0.0733,-0.0817,-0.086,-0.0883,-0.0957,-0.0995,-0.1027,-0.1085,-0.1103,-0.1155,-0.12,-0.1235,-0.1265,-0.1306,-0.1363,-0.1333,-0.1372,-0.137,-0.1367,-0.1337,-0.1296,-0.1286,-0.14,-0.14,-0.1399,0,0,-0.0687,-0.0741,-0.0766,-0.0851,-0.0895,-0.0932,-0.0973,-0.103,-0.106,-0.1114,-0.1162,-0.1201,-0.1249,-0.1287,-0.1312,-0.132,-0.1319,-0.1369,-0.1366,-0.1336,-0.1296,-0.1285,-0.1274,-0.14,-0.14,-0.14,0,0,-0.0696,-0.0733,-0.0763,-0.0809,-0.0884,-0.0925,-0.0944,-0.103,-0.1055,-0.1124,-0.1146,-0.118,-0.1274,-0.1282,-0.1302,-0.1323,-0.1306,-0.1348,-0.13,-0.1262,-0.125,-0.124,-0.1174,-0.1158,-0.135,-0.135,-0.135,0,-0.0671,-0.0731,-0.0787,-0.0818,-0.0848,-0.0917,-0.0941,-0.0986,-0.1086,-0.1097,-0.1127,-0.1202,-0.1257,-0.1263,-0.1265,-0.1313,-0.1277,-0.1303,-0.1253,-0.1243,-0.1233,-0.1168,-0.1151,-0.1347,-0.1348,-0.1348,-0.1348,0,-0.0706,-0.0741,-0.076,-0.0811,-0.0846,-0.0886,-0.0943,-0.0975,-0.1019,-0.1061,-0.1091,-0.1153,-0.1181,-0.1216,-0.1253,-0.1219,-0.1208,-0.1248,-0.1247,-0.1217,-0.1152,-0.1135,-0.1344,-0.1345,-0.1346,-0.1346,0,0,-0.0658,-0.0762,-0.0761,-0.078,-0.0841,-0.0874,-0.0895,-0.0934,-0.0921,-0.1008,-0.0989,-0.107,-0.1085,-0.1106,-0.1151,-0.1134,-0.1053,-0.116,-0.116,-0.107,-0.0932,-0.0878,-0.0855,-0.1079,-0.1077,-0.1075,-0.0907,0,-0.0656,-0.0716,-0.0761,-0.0791,-0.0816,-0.085,-0.0854,-0.0887,-0.0913,-0.091,-0.0955,-0.0959,-0.1049,-0.1041,-0.1042,-0.1046,-0.1009,-0.1092,-0.0995,-0.099,-0.0926,-0.0834,-0.0785,-0.0627,-0.0891,-0.0888,-0.0886,0,-0.0659,-0.0701,-0.0731,-0.0772,-0.0776,-0.0789,-0.0769,-0.0787,-0.0782,-0.0789,-0.079,-0.0819,-0.0808,-0.0885,-0.0849,-0.0894,-0.0898,-0.0906,-0.09,-0.0849,-0.0905,-0.0705,-0.0587,-0.0617,-0.0861,-0.0863,-0.0864,0,-0.0601,-0.0671,-0.0692,-0.0709,-0.0754,-0.0746,-0.0758,-0.0747,-0.072,-0.069,-0.0639,-0.0658,-0.0625,-0.0647,-0.069,-0.075,-0.0626,-0.0714,-0.0658,-0.0654,-0.059,-0.0584,-0.0464,-0.0656,-0.0656,-0.0657,-0.0657,0,-0.0579,-0.0597,-0.0669,-0.0675,-0.0655,-0.07,-0.065,-0.0644,-0.0599,-0.0524,-0.0565,-0.0484,-0.056,-0.0524,-0.0593,-0.0546,-0.0544,-0.0595,-0.0592,-0.0571,-0.0566,-0.0575,-0.0626,-0.065,-0.0652,-0.0653,-0.0654,0,-0.0517,-0.0574,-0.0582,-0.062,-0.0629,-0.0602,-0.0585,-0.0532,-0.0499,-0.0384,-0.0356,-0.0314,-0.025,-0.0315,-0.0311,-0.0381,-0.0359,-0.0368,-0.032,-0.0315,-0.0308,-0.0359,-0.018,-0.0191,-0.0253,-0.0251,-0.0248,0,-0.0498,-0.0503,-0.0514,-0.0492,-0.0509,-0.0497,-0.0462,-0.0464,-0.0401,-0.0272,-0.0192,-0.0098,-0.0015,0.0024,-0.0062,-0.0096,-0.0205,-0.0093,-0.0212,-0.024,-0.0296,-0.0325,-0.0353,-0.01,-0.0097,-0.0095,-0.0092,0,-0.0433,-0.0425,-0.0413,-0.0376,-0.0346,-0.0318,-0.029,-0.0231,-0.0185,-0.0081,0.0081,0.0162,0.0221,0.0236,0.018,0.0115,-0.0081,-0.0038,-0.0079,-0.0145,-0.0153,-0.0187,-0.0272,-0.0069,-0.0071,-0.0073,-0.0074,-0.0075,-0.0336,-0.0306,-0.0279,-0.0239,-0.0202,-0.0141,-0.0099,-0.0047,0.0069,0.0216,0.0274,0.0414,0.0416,0.0365,0.0299,0.019,0.0125,0.0112,0.0064,0.0048,0.0011,0.0001,0.0197,0.0196,0.0195,0.0195,0.0194,0,-0.0211,-0.0205,-0.016,-0.0102,-0.0043,-0.006,0.0024,0.0076,0.0213,0.035,0.0474,0.0573,0.0582,0.0493,0.037,0.029,0.0212,0.0222,0.0169,0.0137,0.0138,0.0113,0.0314,0.0314,0.0314,0.0314,0.0314,0.0314,-0.0137,-0.0079,-0.0081,0.0021,0.0057,0.0134,0.0185,0.027,0.0358,0.0512,0.0597,0.0642,0.0589,0.0485,0.0356,0.0304,0.0203,0.024,0.0158,0.011,0.0094,0.0078,0.0044,0.0228,0.0228,0.0179,0.0179,0.0178]}],[{"header":{"parameterUnit":"m.s-1","parameterCategory":2,"la1":30.2991,"la2":30.254,"lo1":-89.0895,"lo2":-89.0444,"dy":0.0017,"dx":0.0017,"nx":28,"ny":28,"refTime":"2023-09-25T03:00:00:Z","depth":"2","parameterNumber":2,"parameterNumberName":"U-component_of_CURRENTS"},"data":[0,0,0,0,0,0,0,0,0,0,0,0,0,0,0,0,0,0,0,0,0,0,0,0,0,0,0,0,0,0,0,0,0,0,0,0,0,0,0,0,0,0,0,0,0,0,0,0,0,0,0,0,0,0,0,0,0,0,0.1632,0.1633,0,0.1695,0.1695,0.1695,0.1749,0.175,0.1751,0.1752,0.1806,0.1807,0.1807,0,0,0,0,0,0,0,0,0,0,0,0,0,0.1634,0.1633,0.1632,0.1633,0.1635,0.1695,0.1695,0.1695,0.1749,0.175,0.1751,0.1753,0.1806,0.1807,0.1807,0,0,0,0,0,0,0,0,0,0,0,0,0,0.1654,0.1633,0.1632,0.1672,0.1676,0.1694,0.1695,0.1696,0.1749,0.175,0.1752,0.1753,0.1806,0.1806,0.1807,0.1782,0,0,0.181,0.181,0,0,0,0,0,0,0,0,0.1653,0.1654,0.1665,0.1669,0.1674,0.1719,0.1716,0.1726,0.1748,0.1717,0.1752,0.1754,0.1778,0.1781,0.1784,0.1785,0.1787,0.181,0.181,0.181,0.1811,0,0,0,0,0,0,0,0.1651,0.1652,0.1653,0.1666,0.1672,0.1712,0.1715,0.1718,0.1735,0.172,0.1725,0.1738,0.178,0.1783,0.1785,0.1788,0.181,0.181,0.1811,0.1811,0.2004,0.2009,0,0,0,0,0,0,0.1646,0.165,0.1651,0.1655,0.1672,0.1711,0.1714,0.17,0.1735,0.1743,0.1736,0.174,0.1781,0.1784,0.1788,0.1919,0.181,0.1811,0.1812,0.2,0.2005,0.2011,0,0,0,0,0,0,0.1645,0.1644,0.1648,0.1659,0.1663,0.1709,0.1693,0.17,0.1747,0.1749,0.1756,0.1781,0.1782,0.1786,0.1864,0.1915,0.1812,0.1812,0.1994,0.2002,0.2008,0.2079,0,0,0,0,0,0,0.1644,0.1643,0.1649,0.1657,0.1662,0.1722,0.1692,0.1701,0.1752,0.1759,0.1788,0.1792,0.1784,0.1863,0.1864,0.1914,0.1813,0.1988,0.1998,0.2006,0.2071,0.2088,0.2102,0,0,0,0,0,0.1644,0.1656,0.1647,0.165,0.1661,0.1726,0.1734,0.1768,0.1753,0.1807,0.1829,0.1794,0.192,0.1867,0.1868,0.1919,0.1984,0.1995,0.2005,0.2064,0.2084,0.2102,0,0,0,0,0,0,0.1656,0.1662,0.1654,0.1664,0.1717,0.1738,0.1789,0.1789,0.1842,0.1847,0.1836,0.1845,0.1934,0.1931,0.1872,0.2012,0.1953,0.1964,0.1997,0.2016,0.2032,0.2,0.1814,0,0,0,0,0,0.1656,0.1669,0.1693,0.1708,0.1741,0.1763,0.1795,0.1812,0.185,0.1875,0.1882,0.1915,0.1969,0.1998,0.2033,0.2093,0.2071,0.2139,0.2155,0.2167,0.2151,0.2188,0.2203,0.2045,0.2045,0.2045,0,0,0.1661,0.1669,0.1674,0.1714,0.1751,0.1796,0.1789,0.1854,0.1888,0.1869,0.1927,0.1962,0.2002,0.2084,0.2124,0.209,0.2209,0.2181,0.219,0.2166,0.2201,0.2215,0.2228,0.2052,0.2051,0.205,0,0,0.1684,0.1695,0.1721,0.177,0.1835,0.1852,0.1881,0.1919,0.1955,0.2011,0.2021,0.2094,0.2145,0.2191,0.222,0.2345,0.229,0.2374,0.2416,0.2454,0.2465,0.2475,0.2474,0.2482,0.238,0.238,0.238,0,0.1701,0.1719,0.1749,0.1796,0.1842,0.188,0.1931,0.1969,0.202,0.2044,0.2053,0.2151,0.2193,0.2289,0.2354,0.2373,0.237,0.2329,0.2467,0.2476,0.2485,0.2481,0.2489,0.2385,0.2384,0.2384,0.2383,0,0.1726,0.1772,0.1811,0.1863,0.1913,0.1986,0.2032,0.2078,0.2105,0.2119,0.2219,0.228,0.2333,0.2386,0.2408,0.2509,0.248,0.2476,0.2398,0.2503,0.2495,0.2502,0.2391,0.239,0.2388,0.2387,0,0,0.1708,0.181,0.1829,0.1873,0.1965,0.2003,0.2075,0.2147,0.2182,0.2239,0.2288,0.2413,0.2421,0.2459,0.2505,0.2558,0.2639,0.2551,0.2551,0.2511,0.2697,0.2504,0.2493,0.2654,0.2656,0.2657,0.2666,0,0.1746,0.1833,0.187,0.1964,0.2029,0.2084,0.2139,0.2192,0.225,0.2302,0.2372,0.2442,0.2458,0.2505,0.256,0.264,0.2662,0.2635,0.2634,0.2633,0.2417,0.2497,0.2299,0.2275,0.2673,0.2674,0.2675,0,0.1761,0.1829,0.1921,0.2024,0.2055,0.2098,0.2189,0.2244,0.2322,0.236,0.242,0.2461,0.2571,0.2561,0.268,0.2663,0.2674,0.2708,0.2709,0.2498,0.2453,0.224,0.2273,0.2687,0.2686,0.2685,0.2684,0,0.1729,0.1863,0.1937,0.1978,0.2087,0.2129,0.2183,0.2259,0.231,0.2398,0.2423,0.2528,0.2577,0.2646,0.2697,0.2711,0.2781,0.2805,0.2619,0.2605,0.2415,0.2379,0.2833,0.2833,0.2833,0.2833,0.2832,0,0.1754,0.1823,0.1933,0.1974,0.2067,0.2122,0.2201,0.2265,0.2336,0.2375,0.2446,0.2472,0.2601,0.2642,0.2699,0.266,0.277,0.2616,0.2595,0.2436,0.2404,0.2742,0.2731,0.2833,0.2833,0.2833,0.2833,0,0.1727,0.1802,0.189,0.2008,0.2058,0.2113,0.222,0.2258,0.232,0.2376,0.24,0.2457,0.2498,0.2567,0.2664,0.262,0.2642,0.2574,0.2349,0.2299,0.2446,0.244,0.2415,0.2409,0.2403,0.2398,0.2394,0,0.1718,0.1768,0.1899,0.1952,0.2023,0.2114,0.2171,0.2258,0.2284,0.2342,0.2347,0.2384,0.2345,0.2366,0.2352,0.2353,0.2465,0.2115,0.2097,0.2421,0.2405,0.2408,0.241,0.19,0.1892,0.1886,0.1881,0,0.1718,0.1761,0.1826,0.1941,0.202,0.2082,0.2158,0.2172,0.2234,0.2236,0.2196,0.2167,0.2137,0.2001,0.1952,0.1947,0.2116,0.1978,0.2404,0.2006,0.1927,0.1913,0.1934,0.1824,0.183,0.1834,0.1837,0.1839,0.1707,0.1749,0.1824,0.1912,0.1992,0.2005,0.1986,0.2012,0.1994,0.1913,0.1979,0.1824,0.18,0.1598,0.1552,0.1542,0.1717,0.165,0.1675,0.1705,0.1613,0.1525,0.133,0.1333,0.1335,0.1337,0.1339,0,0.1692,0.1737,0.1794,0.1844,0.1838,0.1929,0.1932,0.1833,0.1719,0.1682,0.1578,0.1338,0.1186,0.1213,0.1097,0.1073,0.1138,0.1032,0.1115,0.1169,0.1217,0.1107,0.0687,0.0685,0.0684,0.0682,0,0,0.1702,0.1696,0.1692,0.1653,0.1689,0.1633,0.1593,0.1468,0.1393,0.1195,0.1077,0.106,0.111,0.0855,0.0831,0.074,0.096,0.0706,0.1224,0.1374,0.1421,0.156,0.1446,0,0,0,0,0]},{"header":{"parameterUnit":"m.s-1","parameterCategory":2,"la1":30.2991,"la2":30.254,"lo1":-89.0895,"lo2":-89.0444,"dy":0.0017,"dx":0.0017,"nx":28,"ny":28,"refTime":"2023-09-25T03:00:00:Z","depth":"2","parameterNumber":3,"parameterNumberName":"V-component_of_CURRENTS"},"data":[0,0,0,0,0,0,0,0,0,0,0,0,0,0,0,0,0,0,0,0,0,0,0,0,0,0,0,0,0,0,0,0,0,0,0,0,0,0,0,0,0,0,0,0,0,0,0,0,0,0,0,0,0,0,0,0,0,0,0.0252,0.0252,0,0.0212,0.0212,0.0211,0.0087,0.0085,0.0082,0.008,0.0046,0.0047,0.0049,0,0,0,0,0,0,0,0,0,0,0,0,0,0.0148,0.0151,0.0252,0.0252,0.0252,0.0213,0.0212,0.0211,0.0087,0.0085,0.0082,0.0079,0.0046,0.0047,0.0049,0,0,0,0,0,0,0,0,0,0,0,0,0,0.0156,0.0152,0.0252,0.0188,0.0183,0.0213,0.0212,0.021,0.0088,0.0084,0.0081,0.0078,0.0045,0.0047,0.0049,0.0133,0,0,0.0055,0.0056,0,0,0,0,0,0,0,0,0.0156,0.0159,0.0198,0.0193,0.0186,0.0154,0.0162,0.0186,0.0089,0.012,0.008,0.0076,0.0088,0.0086,0.0081,0.0132,0.013,0.0055,0.0057,0.0057,0.0058,0,0,0,0,0,0,0,0.0155,0.016,0.0233,0.0198,0.0191,0.0137,0.0134,0.0166,0.0122,0.0117,0.0109,0.0112,0.0084,0.008,0.008,0.013,0.0055,0.0057,0.0058,0.0059,0.0144,0.0145,0,0,0,0,0,0,0.0177,0.0161,0.0234,0.0232,0.0166,0.0142,0.0139,0.0165,0.0121,0.0112,0.0115,0.0106,0.0078,0.0078,0.0078,0.0081,0.0057,0.0059,0.006,0.0143,0.0144,0.0145,0,0,0,0,0,0,0.0175,0.0185,0.0236,0.0196,0.0199,0.0149,0.0178,0.0166,0.0125,0.012,0.0109,0.0081,0.0075,0.0075,0.0062,0.0082,0.006,0.0062,0.0141,0.0143,0.0144,0.0147,0,0,0,0,0,0,0.0173,0.0185,0.0187,0.0199,0.0202,0.0229,0.0182,0.0168,0.0136,0.0123,0.009,0.0084,0.0072,0.0059,0.0064,0.0084,0.0064,0.014,0.0142,0.0144,0.0146,0.0149,0.0151,0,0,0,0,0,0.0169,0.0176,0.0188,0.0195,0.0216,0.0229,0.0225,0.0173,0.0138,0.0121,0.0089,0.0083,0.0076,0.0062,0.0067,0.0088,0.0139,0.0142,0.0144,0.0145,0.0148,0.0151,0,0,0,0,0,0,0.0125,0.0166,0.0177,0.0196,0.0209,0.0209,0.0178,0.0169,0.0133,0.0113,0.0093,0.0087,0.0084,0.0093,0.0078,0.012,0.0111,0.0114,0.011,0.0113,0.0116,0.0142,0.0065,0,0,0,0,0,0.013,0.0152,0.0182,0.0202,0.0197,0.0193,0.0183,0.0174,0.0159,0.0135,0.0114,0.0105,0.0112,0.011,0.0116,0.0146,0.0143,0.0166,0.0169,0.0171,0.0198,0.0158,0.0159,0.0153,0.0153,0.0153,0,0,0.0138,0.015,0.0172,0.0195,0.0189,0.0201,0.0174,0.017,0.0183,0.0147,0.0124,0.0112,0.012,0.0133,0.0137,0.0134,0.0178,0.0174,0.0175,0.0202,0.016,0.016,0.0161,0.0154,0.0154,0.0154,0,0,0.0151,0.0155,0.0173,0.0173,0.0178,0.0188,0.0187,0.0187,0.0169,0.0176,0.0151,0.0152,0.0149,0.0166,0.0176,0.0211,0.0188,0.0204,0.0244,0.0204,0.0204,0.0203,0.0224,0.0225,0.021,0.021,0.021,0,0.0136,0.018,0.0178,0.0176,0.0182,0.0182,0.0205,0.0202,0.0203,0.0219,0.0163,0.0184,0.0178,0.0229,0.0223,0.0221,0.0194,0.0224,0.0205,0.0204,0.0204,0.0225,0.0226,0.021,0.021,0.021,0.021,0,0.0181,0.0185,0.018,0.0198,0.0209,0.0219,0.0239,0.0247,0.0231,0.0246,0.0265,0.0246,0.0261,0.0261,0.0245,0.0265,0.0248,0.0202,0.019,0.0204,0.0226,0.0227,0.0211,0.0211,0.0211,0.021,0,0,0.0199,0.0213,0.0201,0.0223,0.0219,0.0251,0.0272,0.0322,0.0359,0.0333,0.0368,0.0368,0.0349,0.0361,0.0345,0.032,0.0293,0.0251,0.0248,0.0263,0.0224,0.0222,0.0224,0.0203,0.0203,0.0203,0.0248,0,0.0219,0.0243,0.0246,0.0285,0.0302,0.0312,0.034,0.0388,0.0405,0.0432,0.0429,0.0433,0.0388,0.0378,0.035,0.0288,0.0291,0.0288,0.0219,0.022,0.0205,0.0223,0.0233,0.0273,0.025,0.025,0.025,0,0.025,0.0264,0.0296,0.0351,0.0358,0.0379,0.0459,0.0489,0.0533,0.0537,0.0548,0.052,0.0505,0.0437,0.037,0.0346,0.0304,0.0265,0.0263,0.0266,0.0219,0.0252,0.0276,0.0252,0.0252,0.0252,0.0252,0,0.0279,0.0304,0.034,0.0344,0.0393,0.042,0.0455,0.0516,0.0551,0.0587,0.0582,0.058,0.0536,0.0464,0.0375,0.0341,0.0299,0.0242,0.0241,0.0242,0.0249,0.0251,0.0233,0.0233,0.0233,0.0233,0.0232,0,0.0293,0.0341,0.035,0.0358,0.0425,0.0448,0.0523,0.056,0.0599,0.0651,0.0609,0.0634,0.0516,0.0475,0.0405,0.0329,0.0318,0.0274,0.0247,0.0255,0.0256,0.0229,0.0228,0.0234,0.0234,0.0234,0.0233,0,0.0342,0.0342,0.0386,0.041,0.0426,0.0471,0.0536,0.0585,0.06,0.0655,0.0641,0.0634,0.0577,0.0507,0.0425,0.036,0.0301,0.03,0.0351,0.0329,0.0277,0.0276,0.0289,0.0289,0.0289,0.029,0.029,0,0.0383,0.0401,0.0395,0.0419,0.0427,0.0492,0.052,0.0569,0.0621,0.0677,0.0691,0.0662,0.0683,0.0573,0.0471,0.0389,0.0361,0.0339,0.0286,0.0307,0.0279,0.0278,0.0277,0.0316,0.0316,0.0316,0.0317,0,0.0479,0.0449,0.0451,0.0446,0.0467,0.0536,0.0587,0.0629,0.0691,0.0724,0.0795,0.0813,0.073,0.0653,0.0526,0.0463,0.0336,0.0341,0.0333,0.029,0.0332,0.0305,0.0303,0.0319,0.0319,0.0318,0.0318,0.0318,0.0518,0.052,0.0473,0.0497,0.053,0.0589,0.0636,0.0698,0.0778,0.0832,0.0876,0.0865,0.0794,0.0612,0.0521,0.0385,0.039,0.0321,0.032,0.0319,0.0303,0.0341,0.0332,0.0332,0.0332,0.0332,0.0332,0,0.0543,0.0543,0.0557,0.0562,0.0611,0.0608,0.0685,0.0724,0.0813,0.0849,0.0901,0.0809,0.0743,0.0625,0.0442,0.0352,0.0331,0.0303,0.03,0.0299,0.0299,0.0281,0.0304,0.0304,0.0303,0.0303,0,0,0.0542,0.0569,0.0566,0.0649,0.0651,0.0684,0.0716,0.0765,0.0803,0.0842,0.082,0.0834,0.0735,0.0591,0.0493,0.0388,0.0349,0.0358,0.0394,0.0402,0.0402,0.0329,0.0304,0,0,0,0,0]}],[{"header":{"parameterUnit":"m.s-1","parameterCategory":2,"la1":30.2991,"la2":30.254,"lo1":-89.0895,"lo2":-89.0444,"dy":0.0017,"dx":0.0017,"nx":28,"ny":28,"refTime":"2023-09-25T03:00:00:Z","depth":"4","parameterNumber":2,"parameterNumberName":"U-component_of_CURRENTS"},"data":[0,0,0,0,0,0,0,0,0,0,0,0,0,0,0,0,0,0,0,0,0,0,0,0,0,0,0,0,0,0,0,0,0,0,0,0,0,0,0,0,0,0,0,0,0,0,0,0,0,0,0,0,0,0,0,0,0,0,0.0482,0.0482,0,0.0448,0.0447,0.0447,0.0467,0.0468,0.0469,0.047,0.0468,0.0467,0.0466,0,0,0,0,0,0,0,0,0,0,0,0,0,0.0573,0.0571,0.0482,0.0482,0.0481,0.0448,0.0447,0.0447,0.0467,0.0468,0.0469,0.047,0.0468,0.0467,0.0466,0,0,0,0,0,0,0,0,0,0,0,0,0,0.0535,0.057,0.0482,0.0487,0.0487,0.0448,0.0447,0.0447,0.0466,0.0468,0.0469,0.0471,0.0468,0.0467,0.0466,0.0428,0,0,0.0461,0.0461,0,0,0,0,0,0,0,0,0.0538,0.0532,0.0487,0.0487,0.0487,0.0463,0.0479,0.0442,0.0466,0.0474,0.047,0.0471,0.0468,0.0467,0.0457,0.0428,0.0428,0.0461,0.046,0.046,0.0459,0,0,0,0,0,0,0,0.054,0.0534,0.0469,0.0486,0.0486,0.0494,0.049,0.0472,0.0464,0.0474,0.0475,0.0471,0.0469,0.0458,0.0457,0.0428,0.0461,0.046,0.0459,0.0459,0.0508,0.051,0,0,0,0,0,0,0.0542,0.0536,0.047,0.0468,0.0516,0.0491,0.0487,0.0469,0.0464,0.0464,0.0469,0.0472,0.046,0.0459,0.0457,0.0496,0.046,0.0458,0.0458,0.0506,0.0509,0.0511,0,0,0,0,0,0,0.0544,0.0536,0.0471,0.0502,0.0495,0.0488,0.0468,0.0468,0.0475,0.046,0.0461,0.0479,0.0461,0.0459,0.0461,0.0493,0.0458,0.0457,0.0504,0.0507,0.051,0.0521,0,0,0,0,0,0,0.0546,0.0536,0.0538,0.0502,0.0493,0.0458,0.0467,0.0466,0.0469,0.0472,0.0468,0.0468,0.0462,0.0464,0.046,0.0491,0.0455,0.0501,0.0505,0.0509,0.0518,0.0524,0.0529,0,0,0,0,0,0.0549,0.0538,0.0538,0.0531,0.049,0.0457,0.0454,0.0454,0.0468,0.0467,0.0473,0.0469,0.0489,0.0462,0.0458,0.0489,0.0499,0.0504,0.0509,0.0515,0.0523,0.0529,0,0,0,0,0,0,0.0577,0.0538,0.0537,0.0516,0.0495,0.0461,0.0466,0.046,0.0461,0.0473,0.0467,0.0467,0.049,0.0489,0.0461,0.0524,0.0505,0.0509,0.0512,0.0519,0.0525,0.0572,0.0454,0,0,0,0,0,0.0583,0.0565,0.0532,0.0515,0.0512,0.0492,0.0485,0.0477,0.0466,0.0469,0.0463,0.048,0.0502,0.0509,0.0516,0.0525,0.0548,0.0557,0.0563,0.0568,0.0609,0.0641,0.0653,0.0527,0.0527,0.0527,0,0,0.0584,0.0565,0.0553,0.0521,0.0512,0.05,0.0492,0.0479,0.0484,0.0467,0.0481,0.0487,0.051,0.0533,0.0546,0.0537,0.0616,0.0574,0.0577,0.0617,0.0647,0.0659,0.067,0.053,0.053,0.0529,0,0,0.0579,0.0569,0.0558,0.054,0.0523,0.0513,0.0513,0.0484,0.0498,0.0507,0.0508,0.054,0.0553,0.0576,0.0596,0.0642,0.0641,0.0646,0.0711,0.0739,0.075,0.0759,0.0795,0.0808,0.0652,0.0652,0.0652,0,0.0597,0.0563,0.055,0.0537,0.0527,0.0524,0.051,0.0522,0.0497,0.0527,0.0528,0.0587,0.0592,0.0644,0.0676,0.0656,0.0671,0.0669,0.0745,0.0755,0.0764,0.0799,0.0813,0.0653,0.0653,0.0653,0.0653,0,0.057,0.0557,0.0551,0.0537,0.0528,0.0512,0.0518,0.0539,0.0569,0.0586,0.0648,0.0654,0.0706,0.0709,0.0715,0.0785,0.0773,0.0738,0.0718,0.0777,0.0811,0.0825,0.0655,0.0654,0.0654,0.0654,0,0,0.0585,0.0543,0.0547,0.0541,0.0523,0.0514,0.0552,0.0589,0.0649,0.0666,0.0733,0.0789,0.0809,0.0836,0.0824,0.0861,0.0934,0.084,0.0841,0.0864,0.1006,0.0894,0.0898,0.0895,0.0898,0.09,0.0999,0,0.0579,0.0544,0.0532,0.0525,0.0507,0.053,0.057,0.0611,0.0675,0.0742,0.0796,0.0856,0.085,0.0879,0.0915,0.0926,0.0974,0.0912,0.0961,0.0964,0.0844,0.0911,0.0909,0.1009,0.1013,0.1015,0.1017,0,0.0561,0.0539,0.0515,0.0521,0.0525,0.0543,0.0627,0.0662,0.0773,0.082,0.0899,0.0937,0.1013,0.0987,0.107,0.1025,0.1048,0.1053,0.1055,0.0965,0.0878,0.0944,0.1042,0.104,0.1038,0.1036,0.1035,0,0.0559,0.0539,0.0524,0.0514,0.0523,0.0568,0.0609,0.0706,0.0763,0.0883,0.0943,0.102,0.1067,0.1111,0.1142,0.1119,0.1212,0.1169,0.1095,0.1087,0.1151,0.114,0.1254,0.1254,0.1254,0.1253,0.1253,0,0.054,0.0534,0.0535,0.0527,0.0556,0.0578,0.0663,0.0724,0.0828,0.0895,0.0988,0.1037,0.1104,0.1157,0.1176,0.1176,0.1243,0.1143,0.1114,0.1153,0.1141,0.116,0.1148,0.1257,0.1256,0.1256,0.1255,0,0.0524,0.0514,0.0509,0.0537,0.0547,0.0585,0.0667,0.073,0.0841,0.0929,0.097,0.1077,0.1139,0.1187,0.1249,0.1209,0.1223,0.1205,0.1266,0.1232,0.108,0.1068,0.116,0.1157,0.1155,0.1153,0.1151,0,0.0501,0.0492,0.0514,0.0522,0.0541,0.0594,0.0623,0.0717,0.0772,0.0933,0.0955,0.1074,0.1126,0.114,0.1179,0.1209,0.1185,0.1196,0.1143,0.1114,0.1076,0.1067,0.1059,0.1147,0.1146,0.1146,0.1145,0,0.047,0.0497,0.0501,0.0508,0.0535,0.0555,0.0613,0.064,0.0754,0.0852,0.0933,0.0995,0.105,0.1084,0.1106,0.1119,0.1189,0.1169,0.1175,0.1126,0.1098,0.1061,0.1056,0.1136,0.1138,0.1138,0.1139,0,0.0471,0.047,0.0488,0.0496,0.0512,0.0518,0.0551,0.06,0.0659,0.082,0.0831,0.0949,0.1029,0.1038,0.1056,0.1058,0.1049,0.1016,0.103,0.104,0.0948,0.0892,0.0872,0,0,0,0,0,0.046,0.0454,0.0465,0.0466,0.0482,0.049,0.0534,0.0573,0.0659,0.0688,0.0768,0.0818,0.088,0.0931,0.0911,0.0995,0.1043,0.0967,0.1009,0.1088,0.1098,0.0997,0,0,0,0,0,0,0.0448,0.0458,0.0454,0.0439,0.0434,0.0441,0.0464,0.0522,0.0543,0.0643,0.0674,0.076,0.082,0.0885,0.0896,0.0909,0.0916,0.1028,0.1025,0.1082,0.1091,0.1099,0.1,0,0,0,0,0]},{"header":{"parameterUnit":"m.s-1","parameterCategory":2,"la1":30.2991,"la2":30.254,"lo1":-89.0895,"lo2":-89.0444,"dy":0.0017,"dx":0.0017,"nx":28,"ny":28,"refTime":"2023-09-25T03:00:00:Z","depth":"4","parameterNumber":3,"parameterNumberName":"V-component_of_CURRENTS"},"data":[0,0,0,0,0,0,0,0,0,0,0,0,0,0,0,0,0,0,0,0,0,0,0,0,0,0,0,0,0,0,0,0,0,0,0,0,0,0,0,0,0,0,0,0,0,0,0,0,0,0,0,0,0,0,0,0,0,0,0.0402,0.0403,0,0.0455,0.0455,0.0455,0.0456,0.0456,0.0455,0.0455,0.0514,0.0516,0.0518,0,0,0,0,0,0,0,0,0,0,0,0,0,0.0313,0.0314,0.0402,0.0403,0.0404,0.0455,0.0455,0.0456,0.0456,0.0456,0.0455,0.0455,0.0514,0.0516,0.0518,0,0,0,0,0,0,0,0,0,0,0,0,0,0.0355,0.0315,0.0402,0.0412,0.0414,0.0455,0.0455,0.0456,0.0456,0.0456,0.0455,0.0455,0.0513,0.0516,0.0519,0.0549,0,0,0.0527,0.0529,0,0,0,0,0,0,0,0,0.0352,0.0357,0.041,0.0412,0.0414,0.0451,0.0446,0.0488,0.0457,0.0437,0.0455,0.0454,0.0496,0.05,0.0507,0.0552,0.0554,0.0528,0.053,0.0531,0.0532,0,0,0,0,0,0,0,0.0349,0.0355,0.042,0.0411,0.0413,0.0418,0.0423,0.0453,0.0467,0.0439,0.044,0.045,0.0496,0.0504,0.0509,0.0555,0.0528,0.053,0.0532,0.0533,0.061,0.061,0,0,0,0,0,0,0.0349,0.0353,0.0419,0.0422,0.0384,0.0421,0.0426,0.0437,0.0467,0.0472,0.0451,0.045,0.05,0.0505,0.0511,0.0552,0.0531,0.0533,0.0535,0.0609,0.061,0.061,0,0,0,0,0,0,0.0347,0.0354,0.0416,0.039,0.0399,0.0423,0.0436,0.0439,0.045,0.0476,0.048,0.0459,0.05,0.0507,0.055,0.0555,0.0535,0.0537,0.0609,0.0609,0.061,0.0633,0,0,0,0,0,0,0.0344,0.0353,0.0356,0.0391,0.0401,0.0442,0.0437,0.044,0.0458,0.0458,0.0485,0.049,0.05,0.0546,0.0553,0.0558,0.054,0.0609,0.0609,0.061,0.0632,0.0634,0.0636,0,0,0,0,0,0.0341,0.0354,0.0356,0.0364,0.0406,0.0443,0.0448,0.0461,0.0459,0.0468,0.0493,0.0489,0.0553,0.055,0.0558,0.0564,0.0608,0.0609,0.061,0.0631,0.0634,0.0636,0,0,0,0,0,0,0.032,0.0357,0.0359,0.0383,0.041,0.0444,0.0459,0.0466,0.0491,0.0497,0.0511,0.0518,0.0553,0.0557,0.0553,0.0584,0.0573,0.0575,0.0586,0.0589,0.0591,0.0584,0.0542,0,0,0,0,0,0.0317,0.0339,0.0369,0.0392,0.0405,0.0431,0.0446,0.046,0.049,0.05,0.052,0.0539,0.0561,0.0575,0.0597,0.0627,0.0607,0.0629,0.0631,0.0633,0.0631,0.0606,0.0605,0.0612,0.0612,0.0612,0,0,0.0319,0.0342,0.0355,0.0389,0.0412,0.0443,0.0438,0.0474,0.0496,0.0506,0.0543,0.0556,0.0572,0.0603,0.0616,0.0608,0.0621,0.0634,0.0636,0.0632,0.0606,0.0605,0.0605,0.0612,0.0612,0.0612,0,0,0.0345,0.0353,0.0381,0.0402,0.044,0.0458,0.0469,0.0505,0.0514,0.0559,0.0561,0.0575,0.0623,0.0621,0.063,0.0656,0.0636,0.0661,0.0667,0.0642,0.0641,0.064,0.0614,0.061,0.0658,0.0658,0.0658,0,0.0342,0.0383,0.0395,0.0426,0.0445,0.0466,0.0498,0.0517,0.0562,0.0567,0.0576,0.0613,0.0626,0.064,0.065,0.0659,0.0645,0.0659,0.0645,0.0643,0.0641,0.0615,0.061,0.0659,0.0659,0.0659,0.0659,0,0.0391,0.0418,0.044,0.0482,0.0499,0.0536,0.056,0.0581,0.0598,0.0609,0.0629,0.0643,0.0657,0.0659,0.0673,0.0665,0.0658,0.0653,0.0637,0.0642,0.0614,0.0609,0.0661,0.0661,0.066,0.066,0,0,0.039,0.046,0.0465,0.049,0.053,0.0554,0.0588,0.0615,0.0631,0.0654,0.0661,0.0687,0.0676,0.0684,0.0681,0.0662,0.0643,0.066,0.0658,0.0632,0.059,0.0555,0.0546,0.064,0.0639,0.0638,0.0574,0,0.0422,0.0494,0.051,0.0566,0.0602,0.0614,0.0641,0.0662,0.0676,0.0689,0.0677,0.0696,0.069,0.07,0.0677,0.0659,0.0631,0.066,0.059,0.0588,0.0555,0.0539,0.0636,0.057,0.0569,0.0568,0.0568,0,0.0457,0.0501,0.0568,0.0612,0.0624,0.0659,0.0687,0.0715,0.0725,0.0723,0.0718,0.0717,0.07,0.0695,0.0639,0.0662,0.0628,0.0603,0.0599,0.0554,0.0543,0.0564,0.0558,0.0559,0.056,0.056,0.0561,0,0.046,0.053,0.0587,0.0606,0.0665,0.0689,0.0717,0.0735,0.0751,0.0751,0.0755,0.0725,0.072,0.0673,0.0627,0.0639,0.0554,0.056,0.0487,0.0485,0.0526,0.0528,0.0507,0.0507,0.0507,0.0507,0.0507,0,0.0486,0.0527,0.0605,0.0636,0.0687,0.0716,0.0758,0.0768,0.0788,0.0792,0.0781,0.0767,0.0718,0.0671,0.0622,0.0532,0.0544,0.0479,0.0462,0.0538,0.0542,0.0522,0.0525,0.0505,0.0505,0.0506,0.0506,0,0.0489,0.0545,0.0606,0.0676,0.07,0.0739,0.0794,0.0818,0.0832,0.0837,0.0842,0.0803,0.0735,0.067,0.0583,0.0525,0.0446,0.0409,0.0488,0.0477,0.0396,0.0401,0.0326,0.0324,0.0323,0.0322,0.032,0,0.0502,0.0545,0.0628,0.0663,0.0704,0.0767,0.0802,0.0836,0.0846,0.0848,0.0838,0.0797,0.0754,0.0596,0.0529,0.0411,0.0395,0.0348,0.0378,0.0385,0.0376,0.0383,0.039,0.0318,0.0318,0.0317,0.0317,0,0.0512,0.0549,0.059,0.0664,0.0718,0.077,0.082,0.0829,0.085,0.087,0.0818,0.0758,0.0669,0.057,0.0473,0.0393,0.0378,0.0331,0.0335,0.0363,0.0374,0.0368,0.0376,0.0311,0.0312,0.0313,0.0313,0,0.0504,0.0529,0.0585,0.0643,0.0707,0.0751,0.0784,0.0795,0.0813,0.0814,0.0791,0.0721,0.0689,0.0558,0.047,0.0385,0.0372,0.0343,0.0346,0.0351,0.0379,0.0399,0.0318,0,0,0,0,0,0.0495,0.0517,0.056,0.062,0.0683,0.0723,0.0777,0.0803,0.0827,0.0784,0.079,0.0707,0.0582,0.0536,0.0443,0.0444,0.0358,0.0331,0.0326,0.0281,0.0287,0.0314,0,0,0,0,0,0,0.0483,0.0525,0.0542,0.0588,0.0627,0.0691,0.0728,0.075,0.0723,0.0739,0.0675,0.0668,0.055,0.063,0.0435,0.0413,0.0392,0.0287,0.0285,0.0277,0.0283,0.0288,0.0318,0,0,0,0,0]}]]